This is the latest recevied weather packets stored in our database for station/object OE9SAU-10. If no packets are shown the sender has not sent any weather packets the latest 10 day(s).
| Time | Temp. | Humidity | Pressure | Rain* | Wind** | Luminosity | Snow |
|---|---|---|---|---|---|---|---|
| 1777661298 | 22.22° C | 33% | 1025.8 hPa | - | - | - | - |
| 1777660398 | 22.78° C | 32% | 1025.6 hPa | - | - | - | - |
| 1777659498 | 22.78° C | 32% | 1025.5 hPa | - | - | - | - |
| 1777658598 | 23.33° C | 32% | 1025.3 hPa | - | - | - | - |
| 1777657698 | 23.89° C | 31% | 1025.2 hPa | - | - | - | - |
| 1777656798 | 23.89° C | 30% | 1025.2 hPa | - | - | - | - |
| 1777655898 | 24.44° C | 29% | 1025.2 hPa | - | - | - | - |
| 1777654998 | 24.44° C | 29% | 1025.1 hPa | - | - | - | - |
| 1777654098 | 24.44° C | 28% | 1025.2 hPa | - | - | - | - |
| 1777653197 | 24.44° C | 28% | 1025.2 hPa | - | - | - | - |
| 1777652297 | 24.44° C | 29% | 1025.4 hPa | - | - | - | - |
| 1777651397 | 24.44° C | 29% | 1025.5 hPa | - | - | - | - |
| 1777650497 | 23.89° C | 29% | 1025.5 hPa | - | - | - | - |
| 1777649597 | 24.44° C | 29% | 1025.7 hPa | - | - | - | - |
| 1777648697 | 23.89° C | 29% | 1025.8 hPa | - | - | - | - |
| 1777647797 | 23.89° C | 30% | 1025.9 hPa | - | - | - | - |
| 1777646897 | 23.89° C | 31% | 1025.9 hPa | - | - | - | - |
| 1777645997 | 23.33° C | 31% | 1026 hPa | - | - | - | - |
| 1777645097 | 23.33° C | 30% | 1026.1 hPa | - | - | - | - |
| 1777644197 | 23.33° C | 31% | 1026.2 hPa | - | - | - | - |
| 1777643297 | 23.33° C | 30% | 1026.4 hPa | - | - | - | - |
| 1777642397 | 23.33° C | 32% | 1026.5 hPa | - | - | - | - |
| 1777641497 | 23.33° C | 31% | 1026.6 hPa | - | - | - | - |
| 1777640596 | 22.78° C | 30% | 1026.8 hPa | - | - | - | - |
| 1777639696 | 22.78° C | 32% | 1026.9 hPa | - | - | - | - |
* Rain since midnight (hover to see other rain measurements)
** Current wind speed in m/s (hover to see current wind gust speed)